map of RAK home
RAK - Airport
Location
City:  Marrakech, Rabat-Salé-Zemmour-Zaer, Morocco
Name:Ménara
ICAO:GMMX
IATA:RAK

Details
Type:Airport (Aerodrome, Airfield)
Use:Public/Civil, International (customs port of entry)
Latitude:31°36'31"N (31.608611)
Longitude:8°02'27"W (-8.040832)
Elevation:1545 ft (471 m)
Variation:1.91°W (WMM2015 magnetic declination)
0.11° annual change
Runways:1
Longest:10171 × 148 ft (3100 × 45 m), paved

Time
Time Zone:UTC+0 (DST+1)
Local Time:

Weather
METAR:GMMX 240230Z 08003KT CAVOK 17/14 Q1022 NOSIG
TAF:GMMX 232300Z 2400/2506 06006KT 8000 NSC
TEMPO 2415/2421 34014KT SCT026

Related Locations
Nearby:
Farthest:KAT: 12181 mi / 19603 km
Kaitaia, NTL, NZ

Find:

   beyond  
but within

Other Information
Maps:
NOTAMs:
Links:
Sources:

  
  • flag of Morocco
  

Sectional Chart

Flight Planning
at skyvector.com

Satellite Image

Google Maps Satellite view

 

Copyright © 2004-2018 Karl L. Swartz. All rights reserved.
The Great Circle Mapper name and logo are trademarks of the Great Circle Mapper.
All other trademarks mentioned herein belong to their respective owners.
Please see credits for attibutions and further copyright information.

  Follow gcmap on Facebook Follow gcmap on Twitter Follow gcmap on Google+ GCmap on LinkedIn

hCard Microformat

Geo Microformat